Hourly Data Report for July 10, 2004

SHERBROOKE A
QUEBEC

45°26'00.000" N
71°41'00.000" W
241.40 m
7028124
71610
YSC

Download Data

Hourly Data (July 2004)
Hourly Data Report for July 10, 2004
TIME
LST
Temp Definition
°C
Dew Point Definition
°C
Rel Hum Definition
%
Precip. Amount Definition
mm

Wind Dir Definition
10's deg

Wind Spd Definition
km/h
Visibility Definition
km
Stn Press Definition
kPa
Hmdx Definition


Wind Chill Definition


Weather Definition


00:00 17.3 15.4 89   25 7 15.0 98.54      
01:00 17.3 15.7 90   28 6 11.3 98.56      
02:00 17.3 16.0 92   27 9 9.7 98.58      
03:00 17.1 15.9 93   29 9 8.0 98.60      
04:00 16.5 15.2 92   31 6 9.7 98.61      
05:00 16.6 14.8 89   31 6 15.0 98.64      
06:00 16.8 15.1 90   31 7 15.0 98.67      
07:00 17.1 15.0 87   29 11 16.1 98.70     Cloudy
08:00 17.5 15.1 86   31 6 24.1 98.74     Cloudy
09:00 17.6 14.7 83   31 6 24.1 98.76     Cloudy
10:00 18.2 15.5 84   30 11 19.3 98.77     Cloudy
11:00 19.4 15.8 80   31 13 24.1 98.75     Mostly Cloudy
12:00 19.8 15.3 75   34 11 24.1 98.73     Mostly Cloudy
13:00 20.2 15.0 72   31 15 24.1 98.74     Mostly Cloudy
14:00 19.9 14.5 71   32 13 24.1 98.74     Cloudy
15:00 19.8 14.6 72   33 11 24.1 98.74     Mostly Cloudy
16:00 19.6 14.8 74   32 11 24.1 98.76     Mostly Cloudy
17:00 18.9 14.3 75   31 13 15.0 98.79      
18:00 18.1 14.2 78   34 9 15.0 98.84      
19:00 17.0 13.5 80   35 7 15.0 98.86      
20:00 15.4 12.8 84     0 15.0 98.90      
21:00 12.9 11.6 92     0 15.0 98.95      
22:00 12.3 11.0 92     0 15.0 98.98      
23:00 11.7 10.8 94   29 4 15.0 99.01      

Notes on Data Quality.

Legend

  • E = Estimated
  • M = Missing
  • NA = Not Available*
  • [empty] = Indicates an unobserved value
Date modified: